SCP
1 2 3 3 4 5 4 3 3 4 5 3 3 2 2 3 2 1 1 1 1 1 2 2 2 1 2 2 1 1 2 1 1 2 2 2 2 3 2 2 2 1 1
1 1 2 2 2 2 2 1 2 3 3 3 2 3 2 2 1 1 1 1 2 2 2 2 2 2 2 2 1 3 2 1 1 2 2 2 1 2 2 0 0 0 1
0 1 1 1 1 1 2 2 2 2 2 2 3 3 5 5 3 1 1 1 1 1 2 3 3 2 2 2 1 1 1 0 0 1 1 1 0 0 2 1 1 0 1
0 1 1 1 1 1 1 2 2 2 2 2 2 3 3 3 3 3 4 5 4 4 3 1 3 3 1 2 1 0 0 0 1 2 1 1 2 1 1 1 1 1 1
0 0 0 0 0 0 1 1 2 3 3 3 2 3 2 2 3 4 4 5 6 4 2 1 1 1 1 1 0 0 1 1 1 1 1 2 3 2 2 1 1 0 0
0 0 0 0 0 0 1 1 2 3 3 3 2 2 3 3 2 4 2 2 3 3 2 3 3 2 2 2 2 2 3 2 3 3 3 4 4 3 2 2 1 1 0
0 0 0 0 0 0 1 3 4 3 2 2 2 2 4 3 4 4 4 3 2 1 1 1 1 0 0 0 0 0 1 2 3 3 3 3 2 3 2 2 1 1 1
0 0 0 0 0 0 1 2 2 2 3 4 3 3 2 2 2 3 2 1 0 0 0 0 0 0 0 0 0 0 0 0 1 0 0 1 1 2 2 1 1 1 1
0 0 0 0 0 1 3 2 2 2 1 1 1 1 1 1 1 0 0 0 0 0 0 0 0 0 0 0 0 0 0 0 0 0 0 0 0 0 0 0 1 1 0
0 0 0 2 2 2 1 1 1 1 1 1 0 0 0 0 0 0 0 0 0 0 0 0 0 0 0 0 0 0 0 0 0 0 0 0 0 0 0 0 0 0 1
0 1 1 1 1 1 0 0 0 0 0 0 0 0 0 0 0 0 0 0 0 0 0 0 0 0 0 0 0 0 0 0 0 0 0 0 0 0 0 0 0 0 0
0 1 1 1 0 0 0 0 0 0 0 0 0 0 0 0 0 0 0 0 0 0 0 0 0 0 0 0 0 0 0 0 0 0 0 0 0 0 0 0 0 0 0
0 0 0 0 0 0 0 0 0 0 0 0 0 0 0 0 0 0 0 0 0 0 0 0 0 0 0 0 0 0 0 0 0 0 0 0 0 0 0 0 0 0 0
0 0 0 0 0 0 0 0 0 0 0 0 0 0 0 0 0 0 0 0 0 0 0 0 0 0 0 0 0 0 0 0 0 0 0 0 0 0 0 0 0 0 0
0 0 0 0 0 0 0 0 0 0 0 0 0 0 0 0 0 0 0 0 0 0 0 0 0 0 0 0 0 0 0 0 0 0 0 0 0 0 0 0 0 0 0
0 0 0 0 0 0 0 0 0 0 0 0 0 0 0 0 0 0 0 0 0 0 0 0 0 0 0 0 0 0 0 0 0 0 0 0 0 0 0 0 0 0 0
0 0 0 0 0 0 0 0 0 0 -0 -0 -0 -0 0 0 0 0 0 0 0 0 0 0 0 0 0 0 0 0 0 0 0 0 0 0 0 0 0 0 0 0 0
0 0 0 -0 -0 0 0 0 0 -0 -0 -0 0 0 0 0 0 0 0 0 0 0 0 0 0 0 0 0 0 0 0 0 0 0 0 0 0 0 0 0 0 0 0
0 0 0 0 0 0 0 0 0 -0 -0 -0 0 0 0 0 0 0 0 0 0 0 0 0 0 0 0 0 0 0 0 0 0 0 0 0 0 0 0 0 0 0 0
-0 -0 -0 -0 0 0 0 0 0 0 0 0 0 0 -0 0 0 0 0 0 0 0 0 0 0 0 0 0 0 -0 0 0 0 0 0 0 0 0 0 0 0 0 0
-0 0 0 0 0 0 0 0 0 0 0 0 0 0 0 0 0 0 0 0 0 0 0 0 0 0 0 0 -0 -0 -0 -0 0 0 0 0 0 0 0 0 0 0 0
0 0 0 0 0 0 0 0 0 0 0 0 0 0 0 0 0 0 0 0 0 0 0 0 0 0 -0 0 -0 -0 -0 0 0 0 0 0 0 0 0 0 0 0 0
0 0 0 0 0 0 0 0 0 0 0 0 0 0 0 0 0 0 0 0 0 0 0 0 0 0 0 0 -0 0 0 0 0 0 0 0 0 0 0 0 0 0 0
0 0 0 0 0 0 0 0 0 0 0 0 0 0 0 0 0 0 0 0 0 0 0 0 0 0 0 0 0 0 0 0 0 0 0 0 0 0 0 0 0 0 0
0 0 0 0 0 0 0 0 0 0 0 0 0 0 0 0 0 0 0 0 0 0 0 0 0 0 0 0 0 0 0 0 0 0 0 0 0 0 0 0 0 0 0
0 0 0 0 0 0 0 0 0 0 0 0 0 0 0 0 0 0 0 0 0 0 0 0 0 0 0 0 0 0 -0 -0 -0 0 0 0 0 0 0 0 0 0 0
Wind_Speed_500mb
39 36 32 25 34 44 52 45 43 50 36 35 32 36 32 33 37 51 48 41 43 39 43 45 41 45 47 46 38 46 51 55 48 47 52 52 49 48 53 55 57 55 52
51 46 37 32 33 34 29 31 36 46 49 38 36 32 34 33 33 31 34 37 40 44 41 40 42 40 44 49 54 55 52 52 39 44 39 38 46 46 50 56 57 55 55
48 58 46 37 33 33 36 32 30 31 41 46 40 41 25 33 26 31 30 35 37 35 35 33 38 42 42 48 49 59 58 53 47 45 37 22 21 30 37 48 61 69 57
48 58 52 43 35 31 25 33 35 29 24 28 34 37 45 40 28 30 34 30 24 31 33 39 53 46 56 42 60 43 67 47 52 44 38 47 49 51 52 59 50 59 70
51 53 54 53 41 32 34 27 28 28 25 21 26 27 33 30 26 33 34 37 31 27 32 35 31 35 36 38 49 41 48 48 45 56 55 60 62 60 63 60 58 60 54
52 43 34 45 45 39 36 35 35 25 20 23 11 22 24 28 31 24 23 22 13 15 21 17 16 25 30 31 34 37 42 44 48 47 50 55 64 63 65 67 72 78 77
52 44 43 41 34 27 30 48 39 27 20 14 15 15 18 26 20 21 13 7 3 10 5 13 15 19 24 27 33 31 27 21 29 33 42 49 53 58 60 64 71 70 73
37 36 31 28 23 25 28 38 30 26 24 23 14 12 18 21 21 17 12 19 6 13 19 15 14 18 24 30 32 28 29 34 39 41 38 38 41 41 48 55 60 69 65
43 42 38 36 33 30 48 44 37 33 29 21 17 13 16 16 16 15 19 16 9 5 11 12 17 20 26 31 33 30 31 38 39 43 43 45 50 50 48 47 48 58 63
44 40 32 46 45 39 37 40 34 28 24 23 14 9 8 8 13 17 8 4 4 8 12 17 22 26 29 36 43 41 40 40 38 41 50 52 51 53 53 49 50 46 56
48 51 52 54 51 51 49 44 41 39 39 32 29 23 17 14 11 7 1 4 9 16 20 24 29 31 30 37 41 39 32 40 47 45 47 52 53 52 54 56 54 53 47
53 45 45 54 51 50 49 54 46 42 35 29 28 21 14 11 6 6 8 11 15 19 20 22 25 25 24 28 34 36 38 38 38 40 39 41 46 51 53 50 50 55 55
52 49 49 51 56 57 53 49 44 39 34 28 21 16 10 9 11 14 18 19 21 23 24 24 25 24 23 27 33 41 42 38 35 37 39 48 53 52 59 61 60 64 65
53 57 59 58 56 54 50 44 39 33 27 20 19 13 16 17 18 19 21 20 19 19 18 21 19 22 25 30 39 40 42 33 28 33 40 43 44 50 48 51 55 59 60
63 61 60 59 54 49 43 36 33 29 24 18 19 22 23 22 21 22 21 22 21 24 22 20 23 19 25 37 39 38 41 39 42 41 44 45 48 48 54 59 55 56 57
62 59 53 50 46 39 39 36 31 23 14 15 10 13 14 13 18 17 19 21 23 23 20 19 18 22 27 33 35 40 45 45 38 44 43 43 43 46 53 56 60 60 56
60 55 51 46 42 38 34 28 23 19 17 16 16 17 15 16 17 17 21 22 24 27 25 24 23 27 34 40 41 38 42 45 45 49 53 58 47 46 55 59 65 70 74
59 53 50 45 40 33 28 23 22 16 14 16 16 18 17 16 15 15 17 18 20 23 24 22 25 27 27 39 43 41 45 42 45 44 46 35 50 53 58 64 77 78 76
59 53 45 41 37 33 23 19 18 14 15 17 17 16 16 14 16 16 20 22 27 21 16 20 20 25 29 35 48 50 52 49 46 42 36 35 48 57 64 65 64 67 67
54 48 39 34 30 28 25 17 14 14 17 17 15 16 14 15 14 16 16 19 15 18 20 30 35 29 29 38 46 50 46 43 46 44 43 44 45 48 47 55 65 76 76
46 38 33 30 28 25 16 11 11 15 15 13 13 13 15 16 23 14 16 19 18 27 31 33 24 22 30 38 43 41 41 43 42 41 44 50 51 51 54 56 64 69 77
39 33 34 28 25 22 10 9 13 13 13 11 12 14 16 15 12 18 19 18 25 34 22 11 11 21 26 32 39 32 30 38 37 44 53 57 51 47 52 59 63 71 79
35 25 26 21 15 14 8 8 9 12 10 8 11 14 16 13 11 14 17 19 24 18 19 19 16 19 25 32 41 41 30 39 46 47 50 52 53 52 57 61 62 69 72
37 29 23 16 12 9 10 9 8 6 6 10 14 13 13 13 7 9 9 13 16 21 20 22 22 27 30 34 40 44 44 42 47 52 53 58 57 61 63 64 66 67 69
30 24 17 13 12 10 8 8 6 7 9 9 12 8 7 10 10 10 9 14 24 23 20 21 21 23 27 30 32 38 39 41 41 43 48 59 64 70 70 66 73 68 71
31 22 14 12 12 8 8 7 5 6 6 12 2 11 11 9 9 12 13 15 24 20 17 19 17 19 22 25 25 27 30 38 39 41 54 63 66 70 72 74 74 68 73
Wind_Direction_500mb
176 165 178 175 189 202 211 211 207 201 201 203 216 219 223 233 236 239 246 249 250 265 263 258 260 245 249 261 250 254 250 244 238 248 256 265 278 282 282 287 284 292 290
172 165 172 173 173 177 188 193 196 203 203 206 211 219 229 235 252 257 263 269 274 274 266 266 265 260 263 268 255 244 250 254 249 251 265 273 282 269 281 272 277 284 292
183 166 169 171 174 179 190 199 208 208 209 208 210 218 214 219 240 252 278 287 285 287 277 273 264 275 256 267 270 262 252 263 269 266 261 271 258 279 291 277 282 290 288
196 166 165 171 177 185 192 188 197 204 214 215 213 218 227 234 241 259 252 256 264 232 249 273 257 258 245 244 280 296 322 289 288 288 285 272 271 285 291 286 280 284 288
195 172 173 177 177 184 187 194 185 186 178 229 216 239 242 240 259 273 265 261 263 278 270 276 277 271 269 262 272 307 276 283 278 283 277 277 279 277 278 281 284 291 287
199 194 198 178 175 178 192 195 185 184 194 190 233 233 233 243 245 261 273 268 281 252 248 251 254 257 261 271 273 273 279 284 284 282 284 280 281 283 283 279 282 285 295
192 190 203 211 184 174 173 158 157 147 159 159 201 255 245 253 250 253 266 328 230 215 243 263 266 277 278 279 279 290 302 299 300 298 296 292 293 291 292 294 296 292 290
191 200 191 191 194 202 182 162 138 133 137 153 174 209 230 240 238 236 212 126 226 282 295 294 296 292 297 293 296 299 297 293 298 297 300 306 305 307 310 310 311 307 301
204 199 202 198 196 176 133 136 140 145 161 178 174 189 202 207 205 182 188 217 214 280 332 303 309 315 310 308 302 297 293 291 298 301 297 293 297 297 293 294 307 307 304
191 190 156 123 120 122 114 114 123 123 122 118 119 157 143 140 157 163 164 191 202 248 296 308 308 307 311 307 304 312 313 314 301 300 300 301 298 296 296 301 301 303 304
129 106 99 95 100 106 100 102 104 110 111 119 121 118 115 119 119 132 167 298 289 287 292 299 300 308 307 303 310 310 309 297 301 301 298 299 305 306 296 293 292 292 302
107 112 112 106 101 103 103 103 107 104 107 106 101 96 83 70 48 349 321 306 307 313 326 328 331 335 325 332 311 317 318 318 321 324 325 317 306 308 301 300 297 294 292
112 112 113 109 110 111 109 107 104 103 98 90 94 93 66 27 5 347 336 337 337 340 347 348 357 350 353 301 320 329 331 330 338 338 327 313 315 310 303 303 302 298 295
122 122 120 120 119 117 116 112 107 101 100 100 79 52 20 357 4 346 347 340 340 344 345 349 354 358 326 324 338 347 350 352 345 338 337 339 330 329 339 333 318 313 310
132 124 123 122 119 117 116 111 103 97 88 67 40 27 16 0 2 6 5 11 4 2 13 4 11 1 321 342 351 356 358 3 2 353 341 337 335 342 334 335 334 328 324
125 125 126 127 124 126 125 119 113 106 98 84 56 46 40 13 27 22 360 3 5 7 21 7 355 335 338 345 354 356 354 355 346 339 339 342 338 327 324 334 332 330 325
126 130 130 129 126 119 120 111 101 66 53 44 27 28 39 32 28 11 348 10 7 16 21 2 4 350 350 356 351 343 343 344 347 344 344 342 347 342 335 323 315 313 311
132 136 133 128 121 116 104 94 81 76 60 56 49 43 47 37 23 9 357 5 26 15 24 355 354 356 353 340 340 351 353 350 337 337 329 348 346 339 321 320 314 314 316
135 130 130 126 120 115 109 93 78 69 57 54 48 44 41 26 12 2 7 21 38 353 19 359 351 356 5 340 346 354 354 356 352 350 357 353 338 327 325 330 333 332 333
125 126 124 119 114 112 112 95 78 66 58 56 47 38 28 20 17 1 10 39 21 344 22 31 29 19 350 349 358 355 0 6 13 20 21 8 352 352 354 349 349 346 342
119 126 121 116 111 103 95 83 71 61 61 60 47 29 27 30 350 30 24 23 8 41 20 25 15 355 353 352 5 357 3 11 18 23 17 9 12 14 12 16 11 12 11
125 121 119 111 105 95 67 45 49 56 63 58 41 30 25 34 12 27 30 11 44 36 25 359 23 24 351 2 11 6 17 16 26 29 22 17 17 22 24 22 21 28 28
124 107 107 102 82 80 81 38 48 70 60 37 39 33 1 47 17 26 26 12 14 24 9 13 42 35 24 25 25 37 42 42 42 34 27 20 26 29 28 24 19 25 26
117 116 111 106 92 53 48 58 46 70 77 47 42 31 356 31 2 68 15 7 355 19 13 26 40 40 32 32 36 42 47 49 45 39 36 36 35 33 31 28 27 28 24
113 129 124 114 87 66 48 44 32 40 63 39 41 351 359 353 21 25 29 356 356 358 14 23 24 35 34 31 24 17 32 26 30 30 31 33 32 31 31 26 24 19 17
148 135 125 121 94 79 42 23 8 40 113 84 219 352 350 22 41 49 335 338 345 344 9 16 19 24 25 20 8 2 13 23 22 24 28 24 22 21 21 18 27 27 22
Wind_Speed_850mb
39 36 32 25 34 44 52 45 43 50 36 35 32 36 32 33 37 51 48 41 43 39 43 45 41 45 47 46 38 46 51 55 48 47 52 52 49 48 53 55 57 55 52
51 46 37 32 33 34 29 31 36 46 49 38 36 32 34 33 33 31 34 37 40 44 41 40 42 40 44 49 54 55 52 52 39 44 39 38 46 46 50 56 57 55 55
48 58 46 37 33 33 36 32 30 31 41 46 40 41 25 33 26 31 30 35 37 35 35 33 38 42 42 48 49 59 58 53 47 45 37 22 21 30 37 48 61 69 57
48 58 52 43 35 31 25 33 35 29 24 28 34 37 45 40 28 30 34 30 24 31 33 39 53 46 56 42 60 43 67 47 52 44 38 47 49 51 52 59 50 59 70
51 53 54 53 41 32 34 27 28 28 25 21 26 27 33 30 26 33 34 37 31 27 32 35 31 35 36 38 49 41 48 48 45 56 55 60 62 60 63 60 58 60 54
52 43 34 45 45 39 36 35 35 25 20 23 11 22 24 28 31 24 23 22 13 15 21 17 16 25 30 31 34 37 42 44 48 47 50 55 64 63 65 67 72 78 77
52 44 43 41 34 27 30 48 39 27 20 14 15 15 18 26 20 21 13 7 3 10 5 13 15 19 24 27 33 31 27 21 29 33 42 49 53 58 60 64 71 70 73
37 36 31 28 23 25 28 38 30 26 24 23 14 12 18 21 21 17 12 19 6 13 19 15 14 18 24 30 32 28 29 34 39 41 38 38 41 41 48 55 60 69 65
43 42 38 36 33 30 48 44 37 33 29 21 17 13 16 16 16 15 19 16 9 5 11 12 17 20 26 31 33 30 31 38 39 43 43 45 50 50 48 47 48 58 63
44 40 32 46 45 39 37 40 34 28 24 23 14 9 8 8 13 17 8 4 4 8 12 17 22 26 29 36 43 41 40 40 38 41 50 52 51 53 53 49 50 46 56
48 51 52 54 51 51 49 44 41 39 39 32 29 23 17 14 11 7 1 4 9 16 20 24 29 31 30 37 41 39 32 40 47 45 47 52 53 52 54 56 54 53 47
53 45 45 54 51 50 49 54 46 42 35 29 28 21 14 11 6 6 8 11 15 19 20 22 25 25 24 28 34 36 38 38 38 40 39 41 46 51 53 50 50 55 55
52 49 49 51 56 57 53 49 44 39 34 28 21 16 10 9 11 14 18 19 21 23 24 24 25 24 23 27 33 41 42 38 35 37 39 48 53 52 59 61 60 64 65
53 57 59 58 56 54 50 44 39 33 27 20 19 13 16 17 18 19 21 20 19 19 18 21 19 22 25 30 39 40 42 33 28 33 40 43 44 50 48 51 55 59 60
63 61 60 59 54 49 43 36 33 29 24 18 19 22 23 22 21 22 21 22 21 24 22 20 23 19 25 37 39 38 41 39 42 41 44 45 48 48 54 59 55 56 57
62 59 53 50 46 39 39 36 31 23 14 15 10 13 14 13 18 17 19 21 23 23 20 19 18 22 27 33 35 40 45 45 38 44 43 43 43 46 53 56 60 60 56
60 55 51 46 42 38 34 28 23 19 17 16 16 17 15 16 17 17 21 22 24 27 25 24 23 27 34 40 41 38 42 45 45 49 53 58 47 46 55 59 65 70 74
59 53 50 45 40 33 28 23 22 16 14 16 16 18 17 16 15 15 17 18 20 23 24 22 25 27 27 39 43 41 45 42 45 44 46 35 50 53 58 64 77 78 76
59 53 45 41 37 33 23 19 18 14 15 17 17 16 16 14 16 16 20 22 27 21 16 20 20 25 29 35 48 50 52 49 46 42 36 35 48 57 64 65 64 67 67
54 48 39 34 30 28 25 17 14 14 17 17 15 16 14 15 14 16 16 19 15 18 20 30 35 29 29 38 46 50 46 43 46 44 43 44 45 48 47 55 65 76 76
46 38 33 30 28 25 16 11 11 15 15 13 13 13 15 16 23 14 16 19 18 27 31 33 24 22 30 38 43 41 41 43 42 41 44 50 51 51 54 56 64 69 77
39 33 34 28 25 22 10 9 13 13 13 11 12 14 16 15 12 18 19 18 25 34 22 11 11 21 26 32 39 32 30 38 37 44 53 57 51 47 52 59 63 71 79
35 25 26 21 15 14 8 8 9 12 10 8 11 14 16 13 11 14 17 19 24 18 19 19 16 19 25 32 41 41 30 39 46 47 50 52 53 52 57 61 62 69 72
37 29 23 16 12 9 10 9 8 6 6 10 14 13 13 13 7 9 9 13 16 21 20 22 22 27 30 34 40 44 44 42 47 52 53 58 57 61 63 64 66 67 69
30 24 17 13 12 10 8 8 6 7 9 9 12 8 7 10 10 10 9 14 24 23 20 21 21 23 27 30 32 38 39 41 41 43 48 59 64 70 70 66 73 68 71
31 22 14 12 12 8 8 7 5 6 6 12 2 11 11 9 9 12 13 15 24 20 17 19 17 19 22 25 25 27 30 38 39 41 54 63 66 70 72 74 74 68 73
Wind_Direction_850mb
176 165 178 175 189 202 211 211 207 201 201 203 216 219 223 233 236 239 246 249 250 265 263 258 260 245 249 261 250 254 250 244 238 248 256 265 278 282 282 287 284 292 290
172 165 172 173 173 177 188 193 196 203 203 206 211 219 229 235 252 257 263 269 274 274 266 266 265 260 263 268 255 244 250 254 249 251 265 273 282 269 281 272 277 284 292
183 166 169 171 174 179 190 199 208 208 209 208 210 218 214 219 240 252 278 287 285 287 277 273 264 275 256 267 270 262 252 263 269 266 261 271 258 279 291 277 282 290 288
196 166 165 171 177 185 192 188 197 204 214 215 213 218 227 234 241 259 252 256 264 232 249 273 257 258 245 244 280 296 322 289 288 288 285 272 271 285 291 286 280 284 288
195 172 173 177 177 184 187 194 185 186 178 229 216 239 242 240 259 273 265 261 263 278 270 276 277 271 269 262 272 307 276 283 278 283 277 277 279 277 278 281 284 291 287
199 194 198 178 175 178 192 195 185 184 194 190 233 233 233 243 245 261 273 268 281 252 248 251 254 257 261 271 273 273 279 284 284 282 284 280 281 283 283 279 282 285 295
192 190 203 211 184 174 173 158 157 147 159 159 201 255 245 253 250 253 266 328 230 215 243 263 266 277 278 279 279 290 302 299 300 298 296 292 293 291 292 294 296 292 290
191 200 191 191 194 202 182 162 138 133 137 153 174 209 230 240 238 236 212 126 226 282 295 294 296 292 297 293 296 299 297 293 298 297 300 306 305 307 310 310 311 307 301
204 199 202 198 196 176 133 136 140 145 161 178 174 189 202 207 205 182 188 217 214 280 332 303 309 315 310 308 302 297 293 291 298 301 297 293 297 297 293 294 307 307 304
191 190 156 123 120 122 114 114 123 123 122 118 119 157 143 140 157 163 164 191 202 248 296 308 308 307 311 307 304 312 313 314 301 300 300 301 298 296 296 301 301 303 304
129 106 99 95 100 106 100 102 104 110 111 119 121 118 115 119 119 132 167 298 289 287 292 299 300 308 307 303 310 310 309 297 301 301 298 299 305 306 296 293 292 292 302
107 112 112 106 101 103 103 103 107 104 107 106 101 96 83 70 48 349 321 306 307 313 326 328 331 335 325 332 311 317 318 318 321 324 325 317 306 308 301 300 297 294 292
112 112 113 109 110 111 109 107 104 103 98 90 94 93 66 27 5 347 336 337 337 340 347 348 357 350 353 301 320 329 331 330 338 338 327 313 315 310 303 303 302 298 295
122 122 120 120 119 117 116 112 107 101 100 100 79 52 20 357 4 346 347 340 340 344 345 349 354 358 326 324 338 347 350 352 345 338 337 339 330 329 339 333 318 313 310
132 124 123 122 119 117 116 111 103 97 88 67 40 27 16 0 2 6 5 11 4 2 13 4 11 1 321 342 351 356 358 3 2 353 341 337 335 342 334 335 334 328 324
125 125 126 127 124 126 125 119 113 106 98 84 56 46 40 13 27 22 360 3 5 7 21 7 355 335 338 345 354 356 354 355 346 339 339 342 338 327 324 334 332 330 325
126 130 130 129 126 119 120 111 101 66 53 44 27 28 39 32 28 11 348 10 7 16 21 2 4 350 350 356 351 343 343 344 347 344 344 342 347 342 335 323 315 313 311
132 136 133 128 121 116 104 94 81 76 60 56 49 43 47 37 23 9 357 5 26 15 24 355 354 356 353 340 340 351 353 350 337 337 329 348 346 339 321 320 314 314 316
135 130 130 126 120 115 109 93 78 69 57 54 48 44 41 26 12 2 7 21 38 353 19 359 351 356 5 340 346 354 354 356 352 350 357 353 338 327 325 330 333 332 333
125 126 124 119 114 112 112 95 78 66 58 56 47 38 28 20 17 1 10 39 21 344 22 31 29 19 350 349 358 355 0 6 13 20 21 8 352 352 354 349 349 346 342
119 126 121 116 111 103 95 83 71 61 61 60 47 29 27 30 350 30 24 23 8 41 20 25 15 355 353 352 5 357 3 11 18 23 17 9 12 14 12 16 11 12 11
125 121 119 111 105 95 67 45 49 56 63 58 41 30 25 34 12 27 30 11 44 36 25 359 23 24 351 2 11 6 17 16 26 29 22 17 17 22 24 22 21 28 28
124 107 107 102 82 80 81 38 48 70 60 37 39 33 1 47 17 26 26 12 14 24 9 13 42 35 24 25 25 37 42 42 42 34 27 20 26 29 28 24 19 25 26
117 116 111 106 92 53 48 58 46 70 77 47 42 31 356 31 2 68 15 7 355 19 13 26 40 40 32 32 36 42 47 49 45 39 36 36 35 33 31 28 27 28 24
113 129 124 114 87 66 48 44 32 40 63 39 41 351 359 353 21 25 29 356 356 358 14 23 24 35 34 31 24 17 32 26 30 30 31 33 32 31 31 26 24 19 17
148 135 125 121 94 79 42 23 8 40 113 84 219 352 350 22 41 49 335 338 345 344 9 16 19 24 25 20 8 2 13 23 22 24 28 24 22 21 21 18 27 27 22